TimeCST,TemperatureF,Dew PointF,Humidity,Sea Level PressureIn,VisibilityMPH,Wind Direction,Wind SpeedMPH,Gust SpeedMPH,PrecipitationIn,Events,Conditions,WindDirDegrees,DateUTC
12:53 AM,57.0,53.1,87,30.12,10.0,Calm,Calm,-,N/A,,Clear,0,2013-03-09 06:53:00
1:53 AM,55.9,52.0,87,30.12,10.0,North,4.6,-,N/A,,Clear,10,2013-03-09 07:53:00
2:14 AM,55.4,53.6,94,30.10,10.0,North,3.5,-,N/A,,Mostly Cloudy,10,2013-03-09 08:14:00
2:33 AM,55.4,53.6,94,30.09,10.0,Calm,Calm,-,N/A,,Mostly Cloudy,0,2013-03-09 08:33:00
2:44 AM,55.4,53.6,94,30.08,8.0,Calm,Calm,-,N/A,,Scattered Clouds,0,2013-03-09 08:44:00
2:53 AM,55.9,53.1,90,30.11,8.0,Calm,Calm,-,N/A,,Scattered Clouds,0,2013-03-09 08:53:00
3:53 AM,57.9,55.0,90,30.09,9.0,East,4.6,-,N/A,,Clear,100,2013-03-09 09:53:00
4:53 AM,57.0,55.0,93,30.09,7.0,East,4.6,-,N/A,,Partly Cloudy,90,2013-03-09 10:53:00
5:53 AM,57.9,55.9,93,30.09,6.0,ESE,6.9,-,N/A,,Partly Cloudy,110,2013-03-09 11:53:00
6:42 AM,57.2,55.4,94,30.08,5.0,ESE,4.6,-,N/A,,Mostly Cloudy,110,2013-03-09 12:42:00
6:53 AM,57.9,55.9,93,30.10,3.0,ESE,5.8,-,N/A,,Mostly Cloudy,110,2013-03-09 12:53:00
7:17 AM,59.0,55.4,88,30.08,3.0,ESE,6.9,-,N/A,,Mostly Cloudy,120,2013-03-09 13:17:00
7:53 AM,57.9,55.9,93,30.11,3.0,ESE,8.1,-,N/A,,Partly Cloudy,110,2013-03-09 13:53:00
8:53 AM,59.0,57.0,93,30.10,4.0,ESE,8.1,-,N/A,,Clear,110,2013-03-09 14:53:00
9:33 AM,60.8,57.2,88,30.07,4.0,SE,11.5,-,N/A,,Partly Cloudy,130,2013-03-09 15:33:00
9:53 AM,62.1,57.9,86,30.09,5.0,SE,11.5,-,N/A,,Clear,130,2013-03-09 15:53:00
10:53 AM,64.9,60.1,84,30.09,10.0,SE,15.0,-,N/A,,Clear,140,2013-03-09 16:53:00
11:53 AM,69.1,61.0,75,30.06,10.0,SE,16.1,-,N/A,,Scattered Clouds,140,2013-03-09 17:53:00
12:53 PM,69.1,60.1,73,30.03,10.0,SSE,12.7,20.7,0.00,Rain,Light Rain,160,2013-03-09 18:53:00
1:53 PM,71.1,61.0,70,30.01,10.0,SSE,13.8,-,0.00,,Partly Cloudy,150,2013-03-09 19:53:00
2:53 PM,71.1,60.1,68,29.99,10.0,SSE,13.8,27.6,N/A,,Partly Cloudy,160,2013-03-09 20:53:00
3:53 PM,69.1,60.1,73,29.97,10.0,SSE,16.1,24.2,N/A,,Clear,160,2013-03-09 21:53:00
4:53 PM,69.1,60.1,73,29.95,10.0,SSE,16.1,20.7,N/A,,Partly Cloudy,150,2013-03-09 22:53:00
5:53 PM,66.9,60.1,79,29.95,10.0,SSE,11.5,-,N/A,,Clear,150,2013-03-09 23:53:00
6:53 PM,64.9,60.1,84,29.94,10.0,SE,11.5,-,N/A,,Clear,140,2013-03-10 00:53:00
7:53 PM,64.9,59.0,81,29.95,10.0,SSE,12.7,-,N/A,,Partly Cloudy,150,2013-03-10 01:53:00
8:48 PM,64.4,60.8,88,29.90,10.0,SE,13.8,-,N/A,,Mostly Cloudy,140,2013-03-10 02:48:00
8:53 PM,64.0,60.1,87,29.93,10.0,SE,12.7,-,N/A,,Mostly Cloudy,140,2013-03-10 02:53:00
9:53 PM,64.9,61.0,87,29.91,10.0,SE,12.7,-,N/A,,Overcast,130,2013-03-10 03:53:00
10:33 PM,64.4,60.8,88,29.88,10.0,SSE,10.4,-,N/A,,Overcast,150,2013-03-10 04:33:00
10:53 PM,64.9,61.0,87,29.90,10.0,SE,11.5,-,N/A,,Overcast,140,2013-03-10 04:53:00
11:25 PM,64.4,60.8,88,29.86,10.0,SE,12.7,-,N/A,,Overcast,140,2013-03-10 05:25:00
11:53 PM,66.0,62.1,87,29.89,10.0,SE,10.4,-,N/A,,Overcast,140,2013-03-10 05:53:00